User: anonymous   Login
Location: Bryzozowice
(50.3667°N, 18.9667°E)
Time: 21:01:08
(UTC+00:00)
Language:

Cosmos 1125 Rocket - Orbit

View from above orbital plane
View from above orbital plane
View from above satellite
View from above satellite

Ground track
Ground track

The orbit data is extracted from the following two-line orbital elements,

1 11511U 79078B   20088.51873699 -.00000044  00000-0 -58747-5 0  9992
2 11511  74.0339 248.9525 0016542 246.1380 113.8041 14.36871380124448
Epoch (UTC): 28 March 2020 12:26:58
Eccentricity: 0.0016542
inclination: 74.0339°
perigee height: 757 km
apogee height: 780 km
right ascension of ascending node: 248.9525°
argument of perigee: 246.1380°
revolutions per day: 14.36871380
mean anomaly at epoch: 113.8041°
orbit number at epoch: 12444

The dashed part of the orbit path shows where the satellite is in the earth's shadow,  

DLR